FW1358 Weather Reports


time (UTC)temp
C
wind
direction
speed
KPH
gust
KPH
rain 1hr
cm
rain 24hr
cm
rain mn
cm
humidity
%
barometer
mb
20260502220803 14 50 0.0 0.0 0.08 0.08 0.08 71 1016.4
20260502220303 14 50 0.0 0.0 0.08 0.08 0.08 72 1016.3
20260502214303 17 188 0.0 0.0 0.03 0.03 0.03 49 1016.2
20260502212803 18 188 0.0 0.0 0.00 0.00 0.00 41 1015.5
20260502211804 18 188 0.0 0.0 0.00 0.00 0.00 41 1015.4
20260502210803 18 188 0.0 0.0 0.00 0.00 0.00 40 1015.5
20260502210303 18 188 0.0 0.0 0.00 0.00 0.00 36 1015.5
20260502205803 18 188 0.0 0.0 0.00 0.00 0.00 37 1015.5
20260502204303 18 188 0.0 0.0 0.00 0.00 0.00 42 1015.6
20260502203303 18 188 0.0 0.0 0.00 0.00 0.00 38 1015.8
20260502202803 18 188 0.0 0.0 0.00 0.00 0.00 35 1015.9
20260502201303 19 188 0.0 0.0 0.00 0.00 0.00 40 1016.0
20260502200803 19 188 0.0 0.0 0.00 0.00 0.00 38 1016.0
20260502200303 19 188 0.0 0.0 0.00 0.00 0.00 40 1016.1
20260502194803 20 188 0.0 3.2 0.00 0.00 0.00 38 1016.4
20260502194303 20 188 0.0 3.2 0.00 0.00 0.00 43 1016.3
20260502192305 20 248 0.0 0.0 0.00 0.00 0.00 38 1016.4
20260502191803 20 248 0.0 0.0 0.00 0.00 0.00 36 1016.4
20260502191304 20 248 0.0 0.0 0.00 0.00 0.00 38 1016.4
20260502190804 19 248 0.0 0.0 0.00 0.00 0.00 36 1016.5
20260502183803 21 32 0.0 1.6 0.00 0.00 0.00 35 1016.4
20260502183303 20 32 0.0 1.6 0.00 0.00 0.00 40 1016.6
20260502181803 20 43 0.0 0.0 0.00 0.00 0.00 38 1016.7
20260502181303 19 43 0.0 0.0 0.00 0.00 0.00 38 1016.6
20260502162804 18 279 0.0 1.6 0.00 0.00 0.00 39 1017.5
20260502162304 18 279 0.0 1.6 0.00 0.00 0.00 38 1017.4
20260502161803 18 237 0.0 1.6 0.00 0.00 0.00 38 1017.4
20260502161303 18 236 0.0 0.0 0.00 0.00 0.00 41 1017.4
20260502160803 18 236 0.0 0.0 0.00 0.00 0.00 41 1017.5
20260502152305 16 291 0.0 1.6 0.00 0.00 0.00 44 1017.6
20260502151803 16 0 0.0 0.0 0.00 0.00 0.00 41 1017.5
20260502150803 16 0 0.0 0.0 0.00 0.00 0.00 43 1017.6
20260502122306 7 33 0.0 0.0 0.00 0.00 0.00 79 1017.1
20260502121304 7 33 0.0 0.0 0.00 0.00 0.00 78 1017.0
20260502120303 7 33 0.0 0.0 0.00 0.00 0.00 79 1016.9
20260502114803 7 33 0.0 0.0 0.00 0.00 0.00 77 1016.9
20260502114303 7 33 0.0 0.0 0.00 0.00 0.00 78 1016.8
20260502113803 7 33 0.0 0.0 0.00 0.00 0.00 78 1016.8
20260502113304 7 33 0.0 0.0 0.00 0.00 0.00 77 1016.7
20260502112803 7 33 0.0 0.0 0.00 0.00 0.00 78 1016.7
20260502111303 7 33 0.0 0.0 0.00 0.00 0.00 77 1016.4
20260502110804 7 33 0.0 0.0 0.00 0.00 0.00 76 1016.4
20260502110303 7 33 0.0 0.0 0.00 0.00 0.00 76 1016.3
20260502105306 8 33 0.0 0.0 0.00 0.00 0.00 75 1016.2
20260502104303 8 33 0.0 0.0 0.00 0.00 0.00 74 1016.3
20260502103303 8 33 0.0 0.0 0.00 0.00 0.00 74 1016.4
20260502101803 8 33 0.0 0.0 0.00 0.00 0.00 74 1016.5
20260502100304 8 33 0.0 0.0 0.00 0.00 0.00 73 1016.4
20260502090803 8 33 0.0 0.0 0.00 0.00 0.00 74 1015.9
20260502071303 10 33 0.0 0.0 0.00 0.00 0.00 67 1016.8
20260502070803 10 33 0.0 0.0 0.00 0.00 0.00 67 1016.9
20260502070304 10 33 0.0 0.0 0.00 0.00 0.00 66 1016.9
20260502065803 10 33 0.0 0.0 0.00 0.00 0.00 67 1016.9
20260502064303 10 33 0.0 0.0 0.00 0.00 0.00 66 1016.9
20260502063803 10 33 0.0 0.0 0.00 0.00 0.00 66 1016.8
20260502060303 10 33 0.0 0.0 0.00 0.00 0.00 63 1017.0
20260502055305 11 33 0.0 0.0 0.00 0.00 0.00 61 1017.1
20260502053804 11 33 0.0 0.0 0.00 0.00 0.00 60 1017.1
20260502053303 11 33 0.0 0.0 0.00 0.00 0.00 60 1017.0
20260502052306 11 33 0.0 0.0 0.00 0.00 0.00 60 1016.9
20260502051803 11 33 0.0 0.0 0.00 0.00 0.00 59 1016.8
20260502050813 11 33 0.0 0.0 0.00 0.00 0.00 57 1016.5
20260502050303 12 33 0.0 0.0 0.00 0.00 0.00 59 1016.5
20260502045803 12 33 0.0 0.0 0.00 0.00 0.00 58 1016.5
20260502044304 12 33 0.0 0.0 0.00 0.00 0.00 58 1016.6
20260502043803 12 33 0.0 0.0 0.00 0.00 0.00 58 1016.6
20260502043303 12 33 0.0 0.0 0.00 0.00 0.00 56 1016.6
20260502042803 12 33 0.0 0.0 0.00 0.00 0.00 57 1016.7
20260502042305 12 33 0.0 0.0 0.00 0.00 0.00 57 1016.7
20260502041303 12 33 0.0 0.0 0.00 0.00 0.00 57 1016.7
20260502040803 12 33 0.0 0.0 0.00 0.00 0.00 55 1016.8
20260502035804 12 33 0.0 0.0 0.00 0.00 0.00 56 1016.9
20260502035306 12 33 0.0 0.0 0.00 0.00 0.00 56 1016.8
20260502034303 12 33 0.0 0.0 0.00 0.00 0.00 54 1017.0
20260502033803 12 33 0.0 0.0 0.00 0.00 0.00 54 1017.0
20260502033304 12 33 0.0 0.0 0.00 0.00 0.00 54 1017.1
20260502031804 12 33 0.0 0.0 0.00 0.00 0.00 54 1017.4
20260502031303 13 33 0.0 0.0 0.00 0.00 0.00 54 1017.5
20260502030804 13 33 0.0 0.0 0.00 0.00 0.00 54 1017.5
20260502025306 13 33 0.0 0.0 0.00 0.00 0.00 53 1017.3
20260502022804 13 33 0.0 0.0 0.00 0.00 0.00 52 1017.0
20260502021304 13 33 0.0 0.0 0.00 0.00 0.00 53 1017.0
20260502020304 13 33 0.0 0.0 0.00 0.00 0.00 46 1016.9
20260502015804 13 33 0.0 0.0 0.00 0.00 0.00 48 1016.8
20260502014303 13 33 0.0 0.0 0.00 0.00 0.00 50 1016.8
20260502013303 13 33 0.0 0.0 0.00 0.00 0.00 49 1016.7
20260502012804 13 33 0.0 0.0 0.00 0.00 0.00 46 1016.5
20260502012306 13 33 0.0 0.0 0.00 0.00 0.00 47 1016.5
20260502011303 14 33 0.0 0.0 0.00 0.00 0.00 46 1016.4
20260502005306 15 33 0.0 0.0 0.00 0.00 0.00 47 1016.2
20260502004803 15 33 0.0 0.0 0.00 0.00 0.00 44 1016.0
20260502002804 15 33 0.0 0.0 0.00 0.00 0.00 43 1015.5
20260502002305 15 33 0.0 0.0 0.00 0.00 0.00 44 1015.5
20260502001303 16 33 0.0 0.0 0.00 0.00 0.00 42 1015.4
20260502000803 16 33 0.0 0.0 0.00 0.00 0.00 42 1015.2
20260502000304 16 33 0.0 0.0 0.00 0.00 0.00 42 1015.0
20260501235803 16 33 0.0 0.0 0.00 0.00 0.00 43 1014.9
20260501235305 16 33 0.0 0.0 0.00 0.00 0.00 42 1014.8
20260501234803 16 33 0.0 0.0 0.00 0.00 0.00 44 1014.7
20260501233803 16 33 0.0 0.0 0.00 0.00 0.00 41 1014.6
20260501233303 16 33 0.0 0.0 0.00 0.00 0.00 40 1014.6
20260501231803 17 33 0.0 0.0 0.00 0.00 0.00 43 1014.6
20260501230303 17 33 0.0 0.0 0.00 0.00 0.00 46 1014.6
20260501225803 17 33 0.0 0.0 0.00 0.00 0.00 43 1014.6
20260501224804 17 33 0.0 0.0 0.00 0.00 0.00 48 1014.3
20260501224303 17 33 0.0 4.8 0.00 0.00 0.00 46 1014.2
20260501221803 18 5 0.0 0.0 0.00 0.00 0.00 48 1013.8